Weather History for Akron, CO

Change the Weather History Date:

Sunday, September 16, 2012

  Actual Average Record
Temperature  
Mean Temperature 72 °F 63 °F  
Max Temperature 88 °F 77 °F 95 °F (2000)
Min Temperature 55 °F 49 °F 29 °F (1965)
Degree Days  
Heating Degree Days 0    
Month to date heating degree days 24  
Cooling Degree Days 7    
Month to date cooling degree days 100  
Growing Degree Days 21 (Base 50)    
Moisture  
Dew Point 27 °F    
Average Humidity 27    
Maximum Humidity 47    
Minimum Humidity 7    
Precipitation  
Precipitation 0.00 in 0.03 in 0.74 in (1958)
Month to date precipitation 0.54 0.66  
Year to date precipitation 6.87 14.15  
Sea Level Pressure  
Sea Level Pressure 29.91 in    
Wind  
Wind Speed 13 mph (WNW)    
Max Wind Speed 30 mph    
Max Gust Speed 35 mph    
Visibility 9 miles    
Events      
T = Trace of Precipitation, MM = Missing Value Source: NWS Daily Summary

Daily Weather History Graph

Daily Weather History Graph

Search for Another Location

Airport:

Trip Planner

Search our weather history database for the weather conditions in past years. The results will help you decide how hot, cold, wet, or windy it might be!

Date:

Astronomy

Sep. 16, 2012 Rise Set
Actual Time 6:35 AM MDT 6:59 PM MDT
Civil Twilight 6:07 AM MDT 7:26 PM MDT
Nautical Twilight 5:35 AM MDT 7:58 PM MDT
Astronomical Twilight 5:03 AM MDT 8:30 PM MDT
Moon 7:17 AM MDT (9/16) 7:05 PM MDT (9/16)
Length of Visible Light 13h 18m
Length of Day
12h 23m
New Moon, 1% of the Moon is Illuminated
Sep 16
New Moon
Sep 22
First Quarter
Sep 29
Full
Oct 8
Last Quarter
Oct 15
New

Hourly Weather History & Observations

Time (MDT) Temp. Dew Point Humidity Pressure Visibility Wind Dir Wind Speed Gust Speed Precip Events Conditions
12:53 AM 62.1 °F 30.0 °F 30% 29.93 in 10.0 mi SSW 12.7 mph - N/A   Clear
1:53 AM 62.1 °F 28.9 °F 29% 29.92 in 10.0 mi SW 15.0 mph - N/A   Clear
2:53 AM 60.1 °F 28.9 °F 31% 29.91 in 10.0 mi SW 16.1 mph - N/A   Clear
3:53 AM 60.1 °F 28.9 °F 31% 29.90 in 10.0 mi SW 15.0 mph - N/A   Clear
4:53 AM 59.0 °F 30.0 °F 33% 29.89 in 10.0 mi WSW 15.0 mph - N/A   Clear
5:53 AM 57.9 °F 30.9 °F 36% 29.90 in 10.0 mi WSW 13.8 mph - N/A   Clear
6:53 AM 57.9 °F 30.0 °F 35% 29.93 in 10.0 mi WSW 12.7 mph - N/A   Clear
7:53 AM 63.0 °F 30.0 °F 29% 29.93 in 10.0 mi WSW 5.8 mph - N/A   Clear
8:53 AM 68.0 °F 28.9 °F 23% 29.93 in 10.0 mi West 13.8 mph - N/A   Clear
9:53 AM 71.1 °F 28.0 °F 20% 29.92 in 10.0 mi West 17.3 mph - N/A   Clear
10:53 AM 75.9 °F 24.1 °F 15% 29.91 in 10.0 mi West 13.8 mph - N/A   Overcast
11:31 AM 78.8 °F 21.2 °F 12% 30.07 in 6.0 mi West 10.4 mph - N/A   Haze
11:53 AM 82.0 °F 23.0 °F 11% 29.89 in 5.0 mi WNW 8.1 mph - N/A   Haze
12:06 PM 82.4 °F 19.4 °F 10% 30.06 in 4.0 mi Variable 5.8 mph - N/A   Haze
12:53 PM 84.0 °F 24.1 °F 11% 29.86 in 8.0 mi North 3.5 mph 17.3 mph N/A   Clear
2:53 PM 87.1 °F 19.9 °F 8% 29.81 in 10.0 mi NNW 19.6 mph 23.0 mph N/A   Clear
3:53 PM 87.1 °F 17.1 °F 8% 29.81 in 10.0 mi NNW 10.4 mph - N/A   Clear
4:53 PM 86.0 °F 17.1 °F 8% 29.80 in 10.0 mi North 15.0 mph 19.6 mph N/A   Clear
5:53 PM 84.0 °F 19.9 °F 9% 29.82 in 10.0 mi NNW 15.0 mph - N/A   Clear
6:53 PM 78.1 °F 21.9 °F 12% 29.83 in 10.0 mi WNW 6.9 mph - N/A   Clear
7:40 PM 73.4 °F 26.6 °F 18% 30.01 in 10.0 mi NE 21.9 mph 28.8 mph N/A   Clear
7:53 PM 72.0 °F 27.0 °F 19% 29.88 in 10.0 mi NNE 18.4 mph 28.8 mph N/A   Clear
8:53 PM 66.0 °F 30.9 °F 27% 29.90 in 10.0 mi NNE 16.1 mph - N/A   Clear
9:53 PM 60.1 °F 33.1 °F 36% 29.93 in 10.0 mi NNE 8.1 mph - N/A   Clear
10:53 PM 55.9 °F 35.1 °F 45% 29.94 in 10.0 mi NNE 10.4 mph - N/A   Clear
11:53 PM 59.0 °F 37.9 °F 46% 29.94 in 10.0 mi NNE 20.7 mph - N/A   Clear